Regional Weather Roundup
Issued by NWS Grand Forks, ND

Home | Current Version | Previous Version | Text Only | Print | Product List | Glossary Off
Versions: 1 2 3 4 5 6 7 8 9 10 11 12 13 14 15 16 17 18 19 20 21 22 23 24 25 26 27 28 29 30 31 32 33 34 35 36 37 38 39 40 41 42 43 44 45 46 47 48 49 50

000
ASUS43 KFGF 170810
RWRFGF
PRAIRIE TO PINES  WEATHER ROUNDUP
NATIONAL WEATHER SERVICE EASTERN NORTH DAKOTA/GRAND FORKS ND
300 AM CDT THU AUG 17 2017

 **SATELLITE DATA USED TO AUGMENT SKY COVER AT AUTOMATED STATIONS**
 *****  WEATHER ACROSS EASTERN NORTH DAKOTA  *****

CITY           SKY/WX    TMP DP  RH WIND       PRES   REMARKS
GRAND FORKS    CLOUDY    60  60 100 N12       29.80F FOG
GRAND FRKS AFB FAIR      58  58 100 NW8       29.81F
DEVILS LAKE    FAIR      56  56 100 NW6       29.87F
FARGO          CLOUDY    63  62  97 N17       29.76F
WAHPETON ARPT  CLOUDY    63  61  94 N13G21    29.74F
$$

 ***** WEATHER ACROSS CENTRAL AND WESTERN NORTH DAKOTA  *****

CITY           SKY/WX    TMP DP  RH WIND       PRES   REMARKS
BISMARCK       MOCLDY    55  54  96 CALM      29.91F
MINOT          FAIR      60  53  77 SW9       29.88S
JAMESTOWN      FAIR      56  55  97 NW7       29.84F
MINOT AFB      MOCLDY    59  52  76 SW7       29.86F
GARRISON         N/A     60  56  86 CALM      29.89F
WILLISTON      FAIR      68  53  58 E6        29.85F
DICKINSON      FAIR      57  53  86 S9        29.89F
HETTINGER      FAIR      58  49  72 SE5       29.95S
$$

 *****  OTHER AIRPORT OBSERVATIONS IN OUR AREA  *****

CITY           SKY/WX    TMP DP  RH WIND       PRES   REMARKS
WALHALLA       FOG       52  52 100 CALM      29.85S VSB 1/4
GRAFTON AIRPOR CLOUDY    57  57 100 N6        29.84F FOG
VALLEY CITY AR   N/A     57  57 100 NW7       29.84S
CANDO          FAIR      52  52 100 N5        29.89F FOG
CAVALIER APRT  FOG       54  54 100 CALM      29.84S VSB<1/4
GWINNER        SUNNY     59  59 100 NW8       29.80S
SHEYENNE NWR     N/A     61  61 100 N7        29.95S
ROLLA          FAIR      50  50 100 NW3       29.89F
 ***** THE ABOVE OBSERVATIONS ARE NON NWS ARE NOT QUALITY
       CONTROLLED AND MAY MIS-REPORT RAIN FOR SNOW...
$$

  *****  WEATHER ACROSS NORTHERN MINNESOTA  *****

CITY           SKY/WX    TMP DP  RH WIND       PRES   REMARKS
FLAG ISLAND    CLOUDY    63  57  82 NE3       29.82F
WARROAD        CLOUDY    63  59  88 NE5       29.82F
ROSEAU           N/A     63  57  82 N5        29.81F
HALLOCK        FOG       61  57  88 CALM      29.82F VSB 3/4
THF RVR FALLS  CLOUDY    62  61  96 N10       29.80S
BAUDETTE       LGT RAIN  60  60 100 NE7       29.80F
WASKISH        LGT RAIN  61  61 100 NE5       29.78F
CROOKSTON      CLOUDY    63  63 100 N9        29.79F
STEPHEN NDAWN    N/A    N/A N/A N/A N8          N/A
GREENBUSH NDAW   N/A     61  61 100 N6          N/A
$$
  *****  WEATHER ACROSS CENTRAL AND WEST MINNESOTA  *****

CITY           SKY/WX    TMP DP  RH WIND       PRES   REMARKS
FOSSTON        DRIZZLE   61  61 100 N9        29.77F
BEMIDJI        LGT RAIN  61  61  98 N3        29.75F
PARK RAPIDS    LGT RAIN  65  62  90 N7        29.72F
ELBOW LAKE     HVY RAIN  64  64 100 N10       29.71F
WADENA         RAIN      63  63 100 N7        29.70F
DETROIT LAKES  RAIN      63  63 100 N7        29.75F
MOORHEAD       CLOUDY    63  61  94 N14       29.77S
FERGUS FALLS   DRIZZLE   64  64 100 N12G18    29.72S
MORRIS MN      LGT RAIN  66  64  94 N14       29.67F
STAPLES        HVY RAIN  61  61 100 N7        29.70S
$$
  *****  WEATHER ELSEWHERE ACROSS MINNESOTA  *****

CITY           SKY/WX    TMP DP  RH WIND       PRES   REMARKS
DULUTH         LGT RAIN  60  60 100 E16G23    29.69F
INTRNTL FALLS  LGT RAIN  60  59  96 NE3       29.80F FOG
ELY            RAIN      57  55  94 NE3       29.79F
CLOQUET        RAIN      63  59  88 E9G18     29.68F
WHEATON        CLOUDY    64  63  94 NW16G22   29.74F
BRAINERD       RAIN      61  60  97 N14       29.65F FOG
HIBBING        RAIN      57  57 100 N10       29.74F FOG
ALEXANDRIA     LGT RAIN  64  64 100 N14       29.67F
SAINT CLOUD    CLOUDY    66  66 100 NE7       29.53F
MINNEAPOLIS    LGT RAIN  68  65  90 S15G23    29.50F FOG
$$

  *****  WEATHER ACROSS SOUTH DAKOTA  *****

CITY           SKY/WX    TMP DP  RH WIND       PRES   REMARKS
SIOUX FALLS    CLOUDY    66  66 100 NW15G23   29.75F
BROOKINGS      CLOUDY    64  62  93 NW18G25   29.75S
WATERTOWN      CLOUDY    63  62  97 NW17G23   29.76F
HURON          FAIR      59  58  96 NW9       29.83R
SISSETON         N/A     64  63  96 NW14      29.75S
ABERDEEN       FAIR      59  58  96 NW9       29.83F
MITCHELL       FAIR      61  59  93 W10       29.83S
PIERRE         FAIR      57  52  83 W6        29.90F
MOBRIDGE       FAIR      57  55  93 N3        29.88F
RAPID CITY     FAIR      55  50  83 SE6       29.97F
$$

  *****  SOME WEATHER IN NEARBY STATES *****

CITY           SKY/WX    TMP DP  RH WIND       PRES   REMARKS
GLASGOW MT     FAIR      60  44  55 E7        29.82S
GREAT FALLS MT FAIR      58  29  33 SW7       29.95S
CHEYENNE WY    FAIR      54  44  69 SW6       30.18F
SCOTTSBLUFF NE FAIR      55  49  80 E5        30.06F
OMAHA NE       FAIR      67  60  78 W7        29.82S
DES MOINES IA  FAIR      68  65  90 W9        29.75S
DAVENPORT IA   NOT AVBL
CHICAGO IL     NOT AVBL
EAU CLAIRE WI  FAIR      69  67  93 SE9       29.58F
LA CROSSE WI   FAIR      75  68  78 SW15      29.63F
$$

  *****  SOME NATIONAL WEATHER *****

CITY           SKY/WX    TMP DP  RH WIND       PRES   REMARKS
LA GUARDIA NY  MOCLDY    72  60  66 NE6       30.02S
RALEIGH NC     FAIR      78  73  84 SE3       30.03F
ATLANTA GA     FAIR      78  74  87 CALM      30.04F
NEW ORLEANS LA FAIR      78  77  96 CALM      30.04F
OKLAHOMA CITY  MOCLDY    70  69  97 S7        29.96R
ALBUQUERQUE NM FAIR      67  41  38 SE6       30.16R
SALT LAKE CITY FAIR      72  39  30 S9        30.05S
LOS ANGELES CA FAIR      66  61  84 S6        29.97R
BOISE ID       FAIR      64  37  36 S3        30.00R
SEATTLE WA     MOCLDY    63  58  83 SW3       30.12F
$$

*** WEATHER ACROSS MANITOBA...SASKATCHEWAN AND ONTARIO ***
                ***ONTARIO***

CITY           SKY/WX    TMP DP  RH WIND       PRES   REMARKS
GERALDTON      MOCLDY    54  50  87 E3        29.93F
THUNDER BAY    CLOUDY    61  57  88 E10       29.83F
SIOUX LOOKOUT  CLOUDY    59  57  94 E5        29.86F
TORONTO        CLEAR     64  61  88 E5        30.02F
BIG TROUT LK   CLOUDY    64  63  94 SW5       29.88S
PICKLE LAKE    NOT AVBL
DRYDEN         CLOUDY    61  55  82 E5        29.86F
KENORA         CLOUDY    61  55  82 NE6       29.85F
$$
                *** MANITOBA***

CITY           SKY/WX    TMP DP  RH WIND       PRES   REMARKS
BRANDON        CLEAR     52  48  87 CALM      29.87S
DAUPHIN        CLEAR     52  48  87 W10       29.85S
ISLAND LAKE    PTCLDY    61  59  94 S6        29.83S
PILOT MOUND      N/A     50  50 100 S3          N/A
THE PAS        CLEAR     54  50  87 S3        29.79S
THOMPSON       PTCLDY    57  57 100 CALM      29.72S
WINNIPEG       CLEAR     55  54  94 W2        29.85F
LYNN LAKE      PTCLDY    55  54  94 MISG      29.68R
CHURCHILL      LGT RAIN  61  57  88 SW9       29.75S
GILLAM         FOG       59  57  94 S8        29.76F VSB 1/4
$$
                ***SASKATCHEWAN***

CITY           SKY/WX    TMP DP  RH WIND       PRES   REMARKS
ESTEVAN        MOCLDY    57  52  82 E3        29.86S THUNDER
KINDERSLEY     CLOUDY    63  46  55 NE7       29.89S
LLOYDMINSTER   MOCLDY    52  50  93 W8        29.86R
PRINCE ALBERT  MOCLDY    46  45  93 CALM      29.83S
REGINA         PTCLDY    64  45  48 NE12      29.88R
YORKTON        PTCLDY    54  50  87 W6        29.88F
N. BATTLEFORD  LGT RAIN  59  52  77 W5        29.84S
LA RONGE       MOCLDY    57  50  77 SW5       29.76F
SASKATOON      CLOUDY    57  48  72 SW5       29.84F
SWIFT CURRENT  MOCLDY    57  43  58 E12       29.86S
$$
NOTE: THESE ARE AUTOMATED STATIONS WITH LIMITED QUALITY CONTROL
      "FAIR" INDICATES FEW OR NO CLOUDS BELOW 12,000 FEET WITH NO
      SIGNIFICANT WEATHER AND/OR OBSTRUCTIONS TO VISIBILITY.
      SKY/WX - SKY CONDITION AND SIGNIFICANT WEATHER.
      TMP - AIR TEMPERATURE.    DP   - DEWPOINT TEMPERATURE.
      RH  - RELATIVE HUMIDITY.  PRES - PRESSURE.
      HX  - HEAT INDEX.         WCI  - WIND CHILL INDEX.
$




USA.gov is the U.S. government's official web portal to all federal, state and local government web resources and services.